Temperature
9 8 7 8 8 9 9 9 9 10 10 9 9 9 10 10 10 10 10 11 11 11 11 11 11 11 11 11 11 11 12 12 12 12 12 12 12 12 12 12 12 12 12 12
8 8 8 9 9 9 9 9 9 9 10 10 9 9 9 9 9 10 10 10 11 11 11 11 11 11 11 11 11 11 11 11 12 12 12 12 12 11 11 11 11 11 11 11
8 9 9 9 9 9 9 9 9 9 9 9 9 9 9 9 10 10 10 11 11 11 11 11 11 11 11 11 11 11 11 11 11 11 11 11 11 11 11 11 11 11 11 11
8 9 9 9 9 9 9 9 9 9 8 7 9 8 9 9 9 9 9 10 10 10 11 11 11 10 11 11 10 11 11 11 11 10 11 11 11 11 11 11 11 11 10 11
8 9 9 9 9 9 9 9 9 9 8 7 8 7 8 8 8 8 8 9 10 10 10 10 10 10 10 10 10 10 10 10 10 10 10 10 10 10 10 10 10 10 10 10
8 9 9 9 9 9 9 8 8 7 7 7 8 7 8 7 8 8 8 9 9 10 10 10 10 10 10 10 10 10 10 10 10 10 10 10 10 10 10 10 10 9 9 9
8 8 9 9 8 8 8 7 7 7 7 7 8 8 8 8 8 8 8 8 9 9 10 9 9 10 10 10 10 9 9 9 9 9 9 9 9 9 9 9 9 9 9 9
7 7 8 8 8 7 7 7 7 8 7 7 7 7 7 8 8 8 8 8 9 9 9 9 9 9 9 9 9 9 9 9 9 9 9 9 9 9 9 9 9 9 9 9
6 7 8 8 8 8 7 6 7 6 6 6 6 7 7 8 7 7 7 7 8 8 9 9 9 9 9 9 9 9 9 9 9 9 9 9 9 9 9 9 9 9 8 8
7 7 7 7 8 8 7 7 5 5 6 7 7 7 7 7 7 6 6 6 7 8 8 8 9 9 9 9 8 8 8 8 8 8 8 8 8 8 8 8 8 8 8 8
6 6 6 6 6 6 6 6 6 5 5 6 6 7 7 6 6 5 5 6 7 7 8 8 8 8 8 8 8 8 8 8 8 8 8 8 8 8 8 8 8 8 7 7
6 4 4 5 6 6 6 6 5 5 5 4 4 6 7 6 6 5 6 7 7 7 7 7 8 8 8 8 8 7 8 8 8 8 8 7 7 7 7 7 7 7 7 7
5 4 4 5 6 6 6 6 5 5 4 3 4 6 6 5 5 6 6 6 7 7 7 7 7 7 7 7 7 7 7 7 7 7 7 7 7 7 7 7 7 7 7 7
6 4 4 6 6 5 5 5 5 4 3 3 4 5 6 5 5 5 5 6 6 7 7 7 7 7 7 7 6 7 7 7 7 7 6 6 6 6 6 6 6 6 6 6
5 4 4 4 5 5 5 5 5 4 4 4 4 5 5 5 4 5 5 6 6 6 6 6 6 6 6 6 6 6 6 6 6 6 6 6 6 6 6 6 6 6 6 6
3 3 3 3 4 4 4 4 4 5 5 4 5 5 5 5 5 5 5 5 5 5 6 6 6 5 5 5 5 5 5 5 5 5 5 5 5 5 5 5 5 5 5 5
2 2 2 2 3 4 3 4 4 4 4 4 4 4 4 4 4 4 4 5 5 5 5 5 5 5 5 5 5 5 5 5 5 5 5 5 5 4 4 4 4 5 4 4
2 2 1 1 2 2 4 4 4 4 3 3 3 3 3 3 4 4 4 4 4 4 5 5 5 5 5 5 4 4 4 4 4 4 4 4 4 4 4 4 4 4 4 4
2 2 1 1 1 2 3 4 3 3 2 2 2 3 3 3 3 3 4 4 4 4 4 4 4 4 4 4 4 4 3 3 3 3 3 3 3 3 3 3 3 3 3 3
2 1 1 1 1 2 3 3 4 3 2 2 2 2 2 2 1 1 3 3 3 3 3 3 3 3 3 3 3 3 3 3 3 3 3 2 2 2 2 2 2 2 2 2
1 0 0 1 1 1 2 3 3 2 2 2 2 2 2 1 2 2 2 2 2 2 3 3 3 3 3 3 2 2 2 2 2 2 2 2 2 2 2 2 2 2 2 2
0 -0 0 0 1 1 2 2 1 1 2 2 2 2 2 2 2 2 2 2 2 2 2 2 2 2 2 2 2 2 2 2 2 1 1 1 1 1 1 1 1 1 1 1
-0 0 0 1 1 1 2 2 2 2 1 1 1 1 1 1 1 1 1 1 1 1 1 1 1 1 1 1 1 1 1 1 1 1 1 1 1 1 1 1 1 1 1 1
-1 -0 -0 -1 -0 0 1 1 1 1 1 1 1 1 1 1 1 1 1 1 0 0 0 0 0 0 0 0 1 1 1 1 0 0 0 0 0 0 0 0 0 0 0 0
-1 -1 -1 -1 -1 -0 0 1 1 1 0 0 0 0 0 0 0 -0 -0 -0 -0 -0 -0 -0 -0 -0 -0 -0 -0 -0 -0 -0 -0 -0 -0 -0 -0 -0 -0 -0 -0 -0 -0 -0
-2 -2 -2 -1 -1 -1 -0 0 0 0 -0 -0 -0 -0 -0 -1 -1 -1 -1 -1 -1 -1 -1 -1 -1 -1 -1 -1 -1 -1 -1 -1 -1 -1 -1 -1 -1 -1 -1 -1 -1 -1 -1 -1
Wind_Speed
1 2 3 6 6 5 4 4 6 6 3 2 6 8 8 5 4 4 4 3 3 4 3 1 2 3 3 3 3 3 4 3 3 2 2 2 2 1 2 3 4 5 5 6
1 4 7 4 4 3 3 4 5 5 2 3 5 8 7 5 5 5 5 5 5 2 1 1 2 3 3 3 3 4 3 3 2 2 2 2 2 1 1 2 2 3 4 5
6 5 3 3 2 3 4 4 4 4 4 2 2 6 5 3 3 2 3 4 4 5 4 3 3 2 3 3 3 3 3 3 3 3 3 3 3 2 2 1 1 1 3 4
5 4 2 3 3 3 5 4 4 3 1 3 1 4 6 4 3 3 4 4 4 3 4 4 4 3 3 3 3 3 3 3 3 4 4 4 3 2 1 1 1 1 2 2
5 3 2 4 5 4 5 3 2 3 2 3 2 3 7 2 4 6 6 5 4 3 4 4 4 4 3 2 2 2 3 3 3 3 4 4 3 2 1 1 1 1 1 1
4 3 3 4 3 3 1 3 2 3 2 3 5 5 6 4 6 5 4 4 4 3 3 4 3 3 2 2 2 2 3 3 3 3 3 4 4 3 2 2 1 1 0 0
3 3 2 1 1 2 3 4 3 3 1 6 2 4 7 5 5 5 5 5 4 3 4 4 4 3 3 2 2 2 3 2 2 2 2 2 3 4 3 3 3 2 1 1
3 5 4 2 3 3 3 5 5 4 5 5 2 5 6 4 2 2 2 3 3 3 3 4 5 4 3 3 3 2 2 1 1 2 1 1 2 2 2 3 2 2 2 2
6 5 2 2 2 5 3 3 4 3 2 3 5 5 5 1 2 2 2 3 2 2 2 2 3 3 3 3 3 3 3 2 2 2 1 1 1 2 2 2 2 2 2 2
5 4 3 1 1 0 3 5 4 3 3 4 5 5 4 4 2 0 1 2 2 2 2 2 2 3 3 3 2 2 3 3 2 2 2 1 1 2 2 2 3 3 3 2
4 4 2 1 5 6 3 3 3 3 3 4 4 6 3 4 4 4 4 3 3 3 3 2 3 3 2 2 2 2 2 2 2 2 1 1 1 1 1 2 3 3 2 2
4 4 3 6 4 3 5 6 6 4 4 4 3 6 3 1 2 3 3 2 2 2 2 2 2 2 1 1 1 2 2 2 2 1 1 1 1 1 2 2 2 3 3 2
5 5 1 3 2 1 3 4 5 4 3 4 5 7 3 2 1 0 1 1 1 1 1 1 0 1 1 2 2 2 2 3 2 2 1 1 1 1 2 2 2 2 2 2
4 4 7 9 6 4 5 6 5 5 5 6 8 8 6 4 3 2 1 2 1 1 1 1 1 2 2 2 2 2 3 3 2 2 2 2 2 2 2 2 2 2 2 3
4 5 6 7 5 4 7 9 8 9 9 9 10 10 10 7 5 4 2 2 1 1 2 2 3 3 2 2 2 2 3 3 2 2 2 3 2 2 1 1 2 1 2 2
2 3 3 4 6 7 10 12 12 12 11 11 10 11 7 5 3 2 2 3 3 3 4 4 3 3 3 3 3 2 3 3 3 3 3 2 2 1 1 1 2 1 1 2
4 4 2 4 3 3 9 10 11 7 7 8 11 10 3 2 3 3 3 3 3 4 4 4 4 4 4 4 4 4 4 2 2 3 2 2 2 2 2 1 2 2 2 2
6 5 3 2 1 8 7 3 6 6 5 5 4 4 4 4 3 2 2 3 3 3 3 3 3 3 3 3 2 2 2 2 2 2 2 2 2 2 2 2 2 3 3 3
7 7 4 4 5 8 6 3 3 4 4 2 4 4 3 3 1 3 2 2 3 3 3 3 3 3 2 2 2 1 1 1 2 3 3 3 3 3 3 3 3 3 3 3
4 6 5 5 5 7 5 3 1 3 3 3 2 2 2 2 1 4 3 2 2 2 2 2 2 1 1 2 1 1 2 2 3 4 4 4 4 4 4 5 4 3 3 4
3 4 7 7 7 6 5 3 2 3 4 1 1 1 1 2 4 4 3 2 2 2 3 2 1 1 2 2 1 2 2 4 4 4 3 3 4 4 4 4 3 3 3 3
6 5 6 5 7 7 2 2 3 4 1 0 1 1 1 2 3 3 3 3 3 3 3 2 2 2 3 2 2 2 4 4 3 3 3 3 4 3 3 3 3 3 3 3
6 6 5 6 6 2 1 2 2 1 1 2 2 3 3 3 4 5 4 4 4 3 3 2 2 3 3 3 2 4 5 4 3 3 3 4 4 3 3 4 4 3 3 3
3 1 2 2 4 3 2 1 1 1 2 3 3 4 3 4 5 5 5 4 4 4 4 3 2 3 4 4 3 4 4 3 2 3 4 3 4 4 4 3 4 4 4 4
3 1 2 4 4 2 3 3 3 3 3 4 4 4 4 4 5 5 5 5 4 4 3 3 3 4 5 4 4 4 3 2 3 3 3 3 4 4 4 4 4 5 5 6
4 5 4 5 5 4 5 4 3 3 4 4 3 3 3 3 4 4 4 3 3 3 2 3 3 4 4 4 5 5 4 3 3 4 4 3 3 3 3 4 4 6 7 9
Wind_Direction
164 111 221 225 212 225 219 233 258 257 234 224 246 264 267 247 219 224 233 224 230 242 248 208 152 133 113 100 108 126 117 119 120 114 115 145 156 151 150 153 149 151 154 159
64 248 243 230 227 235 234 254 270 287 260 224 254 268 264 232 222 220 219 220 221 239 294 173 132 124 122 128 132 118 117 122 130 137 151 150 141 138 154 161 151 158 157 155
205 242 234 206 227 256 255 223 241 263 318 283 292 297 267 241 228 232 234 234 223 207 201 184 144 144 134 144 151 139 123 114 110 111 108 80 70 69 67 106 155 160 163 161
236 256 220 206 228 205 252 229 228 246 323 274 203 278 274 238 239 238 241 238 236 220 190 176 162 167 168 181 166 140 129 118 117 118 121 131 133 140 179 183 182 162 157 163
241 222 206 218 234 206 231 256 233 228 212 294 237 203 278 254 240 242 236 235 233 213 177 173 172 174 173 165 149 136 122 116 115 131 141 141 132 140 137 117 123 160 147 178
240 240 213 215 237 210 215 20 33 53 89 269 234 191 272 234 225 234 229 224 224 208 169 160 146 132 119 109 116 125 127 125 125 129 137 144 142 137 125 133 148 195 185 220
276 263 241 165 76 23 77 83 36 358 329 250 246 196 248 250 231 206 201 206 204 187 170 158 146 138 131 128 120 119 122 111 116 123 138 153 157 153 165 185 186 188 197 221
217 265 226 203 185 184 196 153 166 202 226 272 289 228 249 261 255 193 175 180 172 168 175 176 173 165 160 156 147 140 138 126 142 150 167 167 172 168 185 198 186 194 205 213
195 244 290 240 209 156 157 195 180 156 211 258 265 272 299 328 33 73 101 113 154 179 167 168 167 166 167 170 175 173 166 162 175 178 172 181 204 200 205 205 190 196 205 201
172 233 263 260 64 287 172 155 118 148 189 247 274 259 244 243 237 180 150 165 197 185 155 155 170 175 177 182 180 171 177 184 191 190 197 197 223 228 215 191 188 194 204 195
160 182 272 240 202 198 164 174 161 164 188 189 248 263 234 216 205 195 207 203 188 185 193 201 203 200 187 164 163 172 180 176 189 199 205 201 221 226 198 186 197 194 195 193
162 148 225 247 257 216 192 189 160 174 228 200 207 264 292 240 223 191 202 222 204 188 200 207 200 183 179 197 206 199 191 189 204 201 190 211 231 195 186 189 196 191 192 196
154 147 147 324 301 249 215 202 180 159 150 183 199 256 308 11 21 108 163 210 233 221 207 213 222 212 222 221 216 218 212 210 202 173 161 180 220 200 192 192 193 191 191 195
141 171 193 210 218 196 231 231 197 167 194 220 226 248 271 281 280 288 264 233 227 224 219 216 233 248 251 250 236 233 228 215 200 176 174 192 219 221 210 194 185 195 194 194
146 203 221 243 249 235 243 243 221 212 212 217 238 240 254 253 245 240 229 225 223 242 243 236 241 252 258 259 268 256 242 224 200 182 192 214 223 213 191 183 187 190 189 197
152 200 214 258 246 246 257 249 235 233 231 232 244 257 254 245 218 229 235 222 233 244 248 244 247 244 243 241 242 249 246 235 205 194 204 206 199 191 202 214 197 191 206 213
185 171 184 252 271 306 260 234 220 218 217 209 230 240 231 215 207 220 229 226 233 250 257 249 247 242 239 239 234 235 241 227 204 209 214 205 197 199 219 222 205 209 220 223
181 172 186 226 186 241 247 224 200 206 234 220 223 231 216 213 222 247 237 213 241 259 264 261 250 253 259 263 263 252 251 212 206 216 230 228 220 217 222 218 227 234 228 224
189 176 178 188 224 264 282 256 185 198 254 241 221 236 225 171 63 325 295 243 237 249 262 263 251 243 246 262 269 253 261 240 224 230 235 233 224 221 222 231 244 247 233 236
170 169 178 191 212 235 250 269 249 127 245 267 210 232 224 156 241 273 285 282 287 294 295 291 281 297 275 269 249 217 240 241 244 241 238 232 222 220 223 231 242 249 239 238
162 187 204 213 229 251 261 285 98 176 237 258 211 221 184 219 234 248 271 297 294 299 301 299 295 291 273 266 223 229 243 249 257 256 247 241 232 228 227 230 237 244 247 245
184 192 203 200 222 244 249 110 175 211 219 320 324 267 243 250 260 266 271 273 280 291 303 306 308 298 291 274 233 244 256 262 266 263 251 250 247 244 240 232 245 247 244 249
203 199 199 203 222 256 208 178 204 187 248 284 278 270 254 266 269 269 269 266 268 267 277 282 283 297 298 280 243 246 261 264 261 263 255 253 256 252 242 233 239 249 246 245
256 233 183 240 261 284 286 279 278 237 263 275 271 272 272 272 276 276 273 269 266 266 269 273 277 286 291 288 272 254 261 257 247 259 265 262 257 255 252 244 234 232 236 242
230 200 220 248 258 288 278 260 258 272 281 284 288 279 267 269 276 273 272 266 259 259 261 253 254 262 273 284 288 281 267 253 252 259 260 262 256 251 254 250 240 236 235 234
209 194 201 237 234 227 250 255 249 247 256 263 275 290 289 269 268 275 273 266 259 261 266 268 271 271 280 286 287 287 276 250 247 259 260 258 258 258 255 259 273 258 251 262
Height
1497 1501 1502 1499 1498 1497 1497 1498 1497 1493 1489 1490 1489 1486 1482 1481 1481 1480 1480 1480 1480 1480 1480 1480 1481 1481 1481 1482 1483 1484 1485 1487 1488 1489 1490 1491 1492 1494 1496 1497 1499 1501 1502 1504
1500 1500 1496 1494 1494 1495 1495 1496 1496 1492 1488 1489 1488 1485 1480 1478 1478 1477 1477 1478 1478 1478 1478 1478 1479 1479 1480 1481 1482 1482 1484 1485 1486 1487 1488 1489 1491 1492 1494 1495 1497 1498 1500 1502
1497 1495 1492 1493 1494 1494 1494 1495 1494 1493 1490 1487 1488 1485 1479 1476 1475 1475 1475 1475 1475 1475 1476 1476 1477 1478 1479 1481 1481 1481 1482 1483 1484 1485 1487 1488 1489 1491 1492 1493 1494 1496 1497 1499
1495 1491 1491 1491 1492 1492 1494 1489 1490 1490 1493 1495 1490 1494 1480 1476 1475 1474 1474 1473 1473 1473 1474 1475 1476 1478 1478 1480 1481 1481 1482 1482 1483 1484 1485 1486 1487 1488 1490 1491 1492 1493 1495 1496
1492 1490 1490 1491 1489 1489 1489 1487 1488 1489 1492 1495 1492 1494 1484 1477 1475 1472 1471 1471 1472 1472 1473 1474 1475 1477 1478 1479 1479 1480 1480 1481 1482 1483 1484 1485 1486 1487 1489 1489 1490 1491 1492 1493
1490 1488 1487 1487 1486 1486 1487 1488 1489 1492 1495 1497 1488 1492 1484 1477 1471 1469 1468 1468 1469 1470 1472 1473 1474 1476 1477 1478 1479 1479 1480 1480 1481 1482 1483 1484 1484 1486 1487 1487 1488 1489 1490 1491
1490 1488 1485 1485 1486 1486 1488 1494 1501 1499 1501 1493 1485 1486 1480 1470 1467 1466 1466 1466 1467 1469 1470 1471 1473 1474 1475 1476 1477 1478 1478 1479 1480 1481 1481 1482 1483 1484 1484 1485 1486 1487 1488 1489
1492 1492 1485 1484 1485 1487 1489 1491 1499 1499 1499 1495 1487 1485 1475 1466 1464 1464 1464 1465 1466 1467 1469 1470 1471 1473 1474 1475 1476 1477 1477 1478 1479 1480 1480 1481 1481 1482 1483 1483 1484 1485 1486 1486
1491 1489 1483 1482 1482 1484 1487 1491 1490 1496 1496 1496 1488 1479 1471 1464 1464 1463 1464 1464 1465 1466 1468 1469 1470 1471 1473 1474 1475 1476 1476 1477 1478 1478 1479 1479 1479 1479 1480 1481 1482 1483 1484 1484
1484 1488 1484 1483 1482 1482 1484 1486 1494 1496 1495 1491 1483 1480 1475 1467 1465 1465 1464 1464 1465 1466 1467 1468 1470 1471 1472 1473 1474 1475 1475 1476 1476 1477 1477 1477 1477 1477 1477 1478 1478 1479 1480 1481
1482 1487 1487 1485 1484 1483 1485 1487 1489 1494 1494 1493 1489 1480 1466 1465 1464 1464 1464 1463 1464 1465 1466 1467 1468 1470 1471 1472 1472 1473 1474 1474 1474 1475 1475 1475 1474 1474 1474 1474 1475 1476 1477 1478
1480 1487 1489 1484 1480 1479 1480 1481 1486 1493 1493 1494 1494 1481 1462 1462 1462 1462 1462 1463 1463 1464 1465 1466 1467 1468 1469 1469 1470 1471 1471 1472 1472 1473 1473 1472 1472 1471 1471 1471 1472 1473 1474 1475
1477 1484 1488 1485 1484 1481 1480 1479 1480 1485 1491 1495 1493 1478 1463 1462 1462 1462 1462 1462 1462 1463 1464 1465 1465 1466 1466 1467 1468 1468 1469 1469 1470 1470 1470 1470 1469 1468 1468 1468 1469 1470 1471 1472
1473 1479 1481 1478 1474 1476 1478 1476 1477 1482 1489 1488 1482 1472 1465 1463 1463 1462 1461 1461 1461 1462 1462 1463 1463 1464 1464 1465 1465 1465 1466 1466 1467 1467 1467 1467 1466 1466 1465 1465 1466 1467 1468 1468
1471 1476 1475 1472 1471 1472 1472 1471 1473 1475 1476 1478 1470 1468 1462 1461 1460 1460 1460 1460 1460 1460 1461 1461 1461 1461 1462 1462 1462 1462 1462 1463 1463 1463 1463 1463 1463 1463 1463 1463 1464 1464 1464 1465
1470 1474 1474 1472 1469 1469 1468 1465 1466 1466 1466 1466 1464 1462 1458 1458 1458 1458 1458 1458 1458 1458 1458 1459 1459 1459 1459 1459 1459 1459 1459 1460 1460 1460 1460 1460 1460 1460 1460 1460 1461 1461 1461 1461
1471 1473 1476 1474 1469 1468 1467 1458 1459 1459 1457 1458 1459 1456 1455 1456 1456 1456 1456 1455 1455 1455 1456 1456 1456 1456 1456 1456 1456 1456 1456 1456 1456 1456 1456 1456 1457 1456 1457 1457 1457 1457 1457 1458
1468 1471 1475 1476 1474 1475 1455 1451 1450 1452 1453 1453 1452 1452 1452 1453 1453 1454 1454 1453 1453 1453 1453 1453 1454 1454 1453 1453 1453 1453 1453 1452 1453 1453 1453 1453 1453 1453 1453 1453 1453 1453 1454 1454
1460 1466 1473 1475 1473 1462 1454 1449 1450 1451 1452 1451 1451 1450 1450 1450 1451 1452 1452 1451 1450 1450 1450 1450 1450 1450 1450 1450 1450 1449 1449 1449 1449 1449 1449 1449 1449 1449 1449 1449 1449 1449 1449 1449
1458 1461 1467 1469 1467 1461 1451 1447 1445 1448 1453 1449 1448 1447 1448 1448 1452 1451 1449 1449 1448 1448 1448 1447 1447 1447 1447 1447 1447 1446 1445 1445 1445 1445 1445 1445 1445 1445 1445 1444 1444 1444 1444 1444
1460 1462 1463 1462 1460 1454 1449 1445 1445 1453 1450 1448 1446 1446 1447 1447 1448 1448 1447 1446 1445 1445 1445 1444 1444 1444 1443 1443 1443 1442 1442 1441 1441 1441 1440 1440 1441 1441 1440 1440 1440 1440 1439 1439
1454 1457 1458 1458 1458 1454 1445 1445 1448 1447 1446 1445 1445 1445 1445 1445 1444 1444 1444 1443 1442 1442 1441 1441 1440 1440 1440 1440 1439 1438 1438 1437 1437 1437 1436 1436 1436 1436 1436 1435 1435 1435 1435 1434
1449 1448 1448 1449 1448 1444 1443 1443 1443 1443 1444 1443 1443 1443 1443 1442 1441 1440 1440 1439 1439 1438 1438 1438 1437 1436 1436 1436 1436 1435 1434 1433 1433 1433 1432 1432 1431 1431 1431 1431 1431 1431 1430 1430
1446 1444 1445 1446 1444 1442 1442 1441 1442 1442 1442 1441 1441 1440 1440 1439 1438 1437 1436 1436 1435 1435 1435 1434 1434 1433 1432 1432 1431 1431 1430 1430 1429 1428 1428 1428 1427 1427 1427 1427 1426 1426 1425 1425
1443 1444 1444 1444 1442 1441 1440 1440 1440 1440 1440 1439 1438 1437 1437 1436 1434 1433 1432 1432 1431 1431 1431 1431 1430 1429 1429 1428 1427 1427 1426 1426 1425 1425 1424 1424 1423 1423 1422 1422 1422 1421 1421 1421
1440 1441 1442 1441 1439 1439 1438 1438 1438 1437 1436 1436 1435 1434 1433 1433 1431 1430 1429 1428 1428 1427 1427 1426 1426 1425 1424 1424 1423 1423 1423 1422 1421 1421 1420 1419 1419 1418 1418 1417 1416 1416 1416 1415